,,Stat5,,Stat1,,Stat2,,Stat3,,Stat4,,Wind1,,Wind1,
time,status,PA1M_AVG,status,PR1M_SUM,status,RH1M_AVG,status,SR1M_AVG,status,TA1M_AVG,status,W1dAve1m,status,W1sAve1m,
2002-02-19, 00:00:00,VALID,921.263,VALID,0,VALID,84.2158,VALID,-0.0169808,VALID,20.9892,VALID,146,VALID,1.67701,
2002-02-19, 00:01:00,VALID,921.263,VALID,0,VALID,84.1637,VALID,-0.0169808,VALID,21.0054,VALID,145,VALID,1.57008,
2002-02-19, 00:02:00,VALID,921.263,VALID,0,VALID,84.5681,VALID,0,VALID,21.0471,VALID,149,VALID,1.4447,
2002-02-19, 00:03:00,VALID,921.237,VALID,0,VALID,84.5655,VALID,0,VALID,21.0366,VALID,146,VALID,1.71984,
2002-02-19, 00:04:00,VALID,921.23,VALID,0,VALID,84.6266,VALID,-0.0169808,VALID,21.0541,VALID,143,VALID,1.74548,
2002-02-19, 00:05:00,VALID,921.208,VALID,0,VALID,84.2069,VALID,0,VALID,21.0371,VALID,131,VALID,1.78294,
2002-02-19, 00:06:00,VALID,921.202,VALID,0,VALID,84.3888,VALID,0,VALID,21.0369,VALID,150,VALID,1.67402,
2002-02-19, 00:07:00,VALID,921.191,VALID,0,VALID,84.582,VALID,-0.0169808,VALID,21.0342,VALID,143,VALID,1.47841,
2002-02-19, 00:08:00,VALID,921.178,VALID,0,VALID,84.6342,VALID,-0.0169808,VALID,21.0315,VALID,145,VALID,1.70977,
2002-02-19, 00:09:00,VALID,921.167,VALID,0,VALID,84.7029,VALID,-0.0169808,VALID,21.0113,VALID,146,VALID,1.47773,
2002-02-19, 00:10:00,VALID,921.147,VALID,0,VALID,84.3989,VALID,-0.0169808,VALID,21.025,VALID,151,VALID,1.7474,
2002-02-19, 00:11:00,VALID,921.129,VALID,0,VALID,84.6507,VALID,-0.0169808,VALID,21.0342,VALID,125,VALID,1.14515,
2002-02-19, 00:12:00,VALID,921.117,VALID,0,VALID,84.6812,VALID,-0.0169808,VALID,21.0382,VALID,145,VALID,1.50742,
2002-02-19, 00:13:00,VALID,921.106,VALID,0,VALID,84.6037,VALID,-0.0339617,VALID,21.0277,VALID,144,VALID,1.45293,
2002-02-19, 00:14:00,VALID,921.094,VALID,0,VALID,84.5999,VALID,-0.0169808,VALID,21.0239,VALID,148,VALID,1.55569,
2002-02-19, 00:15:00,VALID,921.098,VALID,0,VALID,84.3544,VALID,0,VALID,21.0212,VALID,151,VALID,1.58635,
2002-02-19, 00:16:00,VALID,921.098,VALID,0,VALID,83.973,VALID,0,VALID,21.0377,VALID,141,VALID,1.49922,
2002-02-19, 00:17:00,VALID,921.081,VALID,0,VALID,84.0187,VALID,-0.0339617,VALID,21.0568,VALID,129,VALID,1.02109,
2002-02-19, 00:18:00,VALID,921.088,VALID,0,VALID,84.0607,VALID,-0.0339617,VALID,21.0864,VALID,160,VALID,0.551482,
2002-02-19, 00:19:00,VALID,921.091,VALID,0,VALID,83.8318,VALID,-0.0509425,VALID,21.0829,VALID,149,VALID,1.22163,
2002-02-19, 00:20:00,VALID,921.093,VALID,0,VALID,83.9259,VALID,-0.0169808,VALID,21.0856,VALID,153,VALID,0.916406,
2002-02-19, 00:21:00,VALID,921.1,VALID,0,VALID,83.8572,VALID,-0.0339617,VALID,21.1023,VALID,153,VALID,1.64531,
2002-02-19, 00:22:00,VALID,921.12,VALID,0,VALID,83.8127,VALID,0,VALID,21.1061,VALID,154,VALID,1.88041,
2002-02-19, 00:23:00,VALID,921.117,VALID,0,VALID,83.6334,VALID,-0.0169808,VALID,21.1023,VALID,139,VALID,1.34581,
2002-02-19, 00:24:00,VALID,921.133,VALID,0,VALID,83.8254,VALID,-0.0339617,VALID,21.1114,VALID,146,VALID,1.16406,
2002-02-19, 00:25:00,VALID,921.13,VALID,0,VALID,83.4249,VALID,0,VALID,21.1179,VALID,148,VALID,1.40762,
2002-02-19, 00:26:00,VALID,921.123,VALID,0,VALID,83.4859,VALID,0,VALID,21.1238,VALID,145,VALID,1.19732,
2002-02-19, 00:27:00,VALID,921.116,VALID,0,VALID,83.5495,VALID,0,VALID,21.1303,VALID,147,VALID,1.10876,
2002-02-19, 00:28:00,VALID,921.109,VALID,0,VALID,83.7708,VALID,0.0169808,VALID,21.1236,VALID,137,VALID,1.0457,
2002-02-19, 00:29:00,VALID,921.099,VALID,0,VALID,83.8967,VALID,0,VALID,21.1211,VALID,139,VALID,0.901953,
2002-02-19, 00:30:00,VALID,921.079,VALID,0,VALID,83.6767,VALID,0,VALID,21.0848,VALID,151,VALID,1.48217,
2002-02-19, 00:31:00,VALID,921.069,VALID,0,VALID,83.6652,VALID,0.0169808,VALID,21.0915,VALID,140,VALID,0.840049,
2002-02-19, 00:32:00,VALID,921.051,VALID,0,VALID,83.8407,VALID,0,VALID,21.105,VALID,133,VALID,1.01504,
2002-02-19, 00:33:00,VALID,921.033,VALID,0,VALID,83.6589,VALID,0.0169808,VALID,21.0818,VALID,140,VALID,1.31016,
2002-02-19, 00:34:00,VALID,921.021,VALID,0,VALID,83.7822,VALID,-0.0169808,VALID,21.0719,VALID,149,VALID,1.15925,
2002-02-19, 00:35:00,VALID,921.013,VALID,0,VALID,83.4872,VALID,0,VALID,21.0654,VALID,144,VALID,1.52652,
2002-02-19, 00:36:00,VALID,920.996,VALID,0,VALID,83.5635,VALID,-0.0169808,VALID,21.0781,VALID,148,VALID,1.55215,
2002-02-19, 00:37:00,VALID,920.996,VALID,0,VALID,83.5953,VALID,0.0169808,VALID,21.1012,VALID,146,VALID,1.78047,
2002-02-19, 00:38:00,VALID,921.006,VALID,0,VALID,83.5075,VALID,0,VALID,21.1109,VALID,137,VALID,1.45212,
2002-02-19, 00:39:00,VALID,920.999,VALID,0,VALID,83.6894,VALID,0.0169808,VALID,21.1171,VALID,128,VALID,1.35526,
2002-02-19, 00:40:00,VALID,921.009,VALID,0,VALID,83.8064,VALID,0,VALID,21.1236,VALID,155,VALID,1.43008,
2002-02-19, 00:41:00,VALID,921,VALID,0,VALID,83.767,VALID,0.0169808,VALID,21.1139,VALID,142,VALID,1.27617,
2002-02-19, 00:42:00,VALID,921.008,VALID,0,VALID,83.875,VALID,0,VALID,21.1209,VALID,141,VALID,1.04006,
2002-02-19, 00:43:00,VALID,921.007,VALID,0,VALID,83.9768,VALID,0,VALID,21.1077,VALID,142,VALID,1.22677,
2002-02-19, 00:44:00,VALID,921,VALID,0,VALID,84.0594,VALID,0,VALID,21.1042,VALID,136,VALID,1.11113,
2002-02-19, 00:45:00,VALID,920.993,VALID,0,VALID,84.2718,VALID,0,VALID,21.0913,VALID,149,VALID,1.63281,
2002-02-19, 00:46:00,VALID,920.975,VALID,0,VALID,84.4663,VALID,0,VALID,21.0721,VALID,151,VALID,1.25561,
2002-02-19, 00:47:00,VALID,920.969,VALID,0,VALID,84.3443,VALID,0.0169808,VALID,21.0625,VALID,143,VALID,1.95251,
2002-02-19, 00:48:00,VALID,920.962,VALID,0,VALID,84.1166,VALID,0.0339617,VALID,21.0727,VALID,124,VALID,1.25273,
2002-02-19, 00:49:00,VALID,920.961,VALID,0,VALID,84.2196,VALID,0.0169808,VALID,21.0721,VALID,163,VALID,1.12227,
2002-02-19, 00:50:00,VALID,920.953,VALID,0,VALID,84.4511,VALID,0.0169808,VALID,21.0848,VALID,143,VALID,1.30789,
2002-02-19, 00:51:00,VALID,920.95,VALID,0,VALID,84.4701,VALID,0,VALID,21.0818,VALID,146,VALID,1.25822,
2002-02-19, 00:52:00,VALID,920.94,VALID,0,VALID,84.6545,VALID,0,VALID,21.0684,VALID,137,VALID,1.16172,
2002-02-19, 00:53:00,VALID,920.933,VALID,0,VALID,84.8872,VALID,0.0339617,VALID,21.0686,VALID,152,VALID,0.942187,
2002-02-19, 00:54:00,VALID,920.914,VALID,0,VALID,84.8885,VALID,0.0169808,VALID,21.0495,VALID,146,VALID,1.59475,
2002-02-19, 00:55:00,VALID,920.906,VALID,0,VALID,84.9521,VALID,0.0169808,VALID,21.0398,VALID,142,VALID,1.56538,
2002-02-19, 00:56:00,VALID,920.895,VALID,0,VALID,85.0208,VALID,0,VALID,21.0331,VALID,142,VALID,0.94668,
2002-02-19, 00:57:00,VALID,920.895,VALID,0,VALID,85.2102,VALID,0.0509425,VALID,21.0194,VALID,151,VALID,1.25469,
2002-02-19, 00:58:00,VALID,920.881,VALID,0,VALID,85.1911,VALID,0.0169808,VALID,21.0102,VALID,138,VALID,1.23478,
2002-02-19, 00:59:00,VALID,920.878,VALID,0,VALID,85.4162,VALID,0.0169808,VALID,21.0003,VALID,142,VALID,0.835732,
2002-02-19, 01:00:00,VALID,920.871,VALID,0,VALID,85.5345,VALID,0.0679233,VALID,20.9973,VALID,143,VALID,1.0185,
2002-02-19, 01:01:00,VALID,920.854,VALID,0,VALID,85.5268,VALID,0,VALID,20.9715,VALID,129,VALID,1.27422,
2002-02-19, 01:02:00,VALID,920.827,VALID,0,VALID,85.607,VALID,0.0169808,VALID,20.9715,VALID,135,VALID,1.11078,
2002-02-19, 01:03:00,VALID,920.805,VALID,0,VALID,85.3399,VALID,0.0339617,VALID,20.965,VALID,117,VALID,0.920847,
2002-02-19, 01:04:00,VALID,920.786,VALID,0,VALID,85.5027,VALID,0.0169808,VALID,20.9819,VALID,117,VALID,0.800586,
2002-02-19, 01:05:00,VALID,920.771,VALID,0,VALID,85.9007,VALID,0,VALID,20.975,VALID,86,VALID,0.993945,
2002-02-19, 01:06:00,VALID,920.746,VALID,0,VALID,85.9643,VALID,0.0169808,VALID,20.9491,VALID,102,VALID,0.990184,
2002-02-19, 01:07:00,VALID,920.719,VALID,0,VALID,85.9363,VALID,0,VALID,20.93,VALID,95,VALID,1.00843,
2002-02-19, 01:08:00,VALID,920.689,VALID,0,VALID,86.3076,VALID,0.0169808,VALID,20.9195,VALID,83,VALID,0.531445,
2002-02-19, 01:09:00,VALID,920.683,VALID,0,VALID,86.5836,VALID,-0.0339617,VALID,20.9012,VALID,84,VALID,0.810742,
2002-02-19, 01:10:00,VALID,920.669,VALID,0,VALID,86.9332,VALID,-0.0679233,VALID,20.8893,VALID,67,VALID,0.672276,
2002-02-19, 01:11:00,VALID,920.646,VALID,0,VALID,86.9243,VALID,-0.0679233,VALID,20.8538,VALID,125,VALID,0.719984,
2002-02-19, 01:12:00,VALID,920.65,VALID,0,VALID,87.0757,VALID,-0.101885,VALID,20.8311,VALID,112,VALID,1.00234,
2002-02-19, 01:13:00,VALID,920.635,VALID,0,VALID,87.4114,VALID,-0.101885,VALID,20.8182,VALID,99,VALID,0.583984,
2002-02-19, 01:14:00,VALID,920.639,VALID,0,VALID,87.6148,VALID,-0.101885,VALID,20.7894,VALID,98,VALID,1.02444,
2002-02-19, 01:15:00,VALID,920.625,VALID,0,VALID,87.8068,VALID,-0.101885,VALID,20.7665,VALID,124,VALID,0.561061,
2002-02-19, 01:16:00,VALID,920.626,VALID,0,VALID,87.6988,VALID,-0.101885,VALID,20.7539,VALID,138,VALID,0.839453,
2002-02-19, 01:17:00,VALID,920.612,VALID,0,VALID,87.7611,VALID,-0.101885,VALID,20.7504,VALID,141,VALID,0.740039,
2002-02-19, 01:18:00,VALID,920.613,VALID,0,VALID,87.6542,VALID,-0.101885,VALID,20.7509,VALID,145,VALID,1.06971,
2002-02-19, 01:19:00,VALID,920.609,VALID,0,VALID,87.5919,VALID,-0.101885,VALID,20.7439,VALID,157,VALID,0.856702,
2002-02-19, 01:20:00,VALID,920.618,VALID,0,VALID,87.4279,VALID,-0.101885,VALID,20.7536,VALID,137,VALID,1.21699,
2002-02-19, 01:21:00,VALID,920.613,VALID,0,VALID,87.4139,VALID,-0.0679233,VALID,20.7533,VALID,139,VALID,1.06758,
2002-02-19, 01:22:00,VALID,920.615,VALID,0,VALID,87.3898,VALID,-0.0849042,VALID,20.7533,VALID,144,VALID,1.32572,
2002-02-19, 01:23:00,VALID,920.61,VALID,0,VALID,87.4012,VALID,-0.0679233,VALID,20.7568,VALID,149,VALID,1.21279,
2002-02-19, 01:24:00,VALID,920.603,VALID,0,VALID,87.3796,VALID,0.0339617,VALID,20.7617,VALID,152,VALID,1.11855,
2002-02-19, 01:25:00,VALID,920.597,VALID,0,VALID,87.4355,VALID,0.101885,VALID,20.7741,VALID,159,VALID,0.911328,
2002-02-19, 01:26:00,VALID,920.603,VALID,0,VALID,87.3618,VALID,0.0339617,VALID,20.7808,VALID,148,VALID,1.24419,
2002-02-19, 01:27:00,VALID,920.6,VALID,0,VALID,87.2778,VALID,0.0679233,VALID,20.7671,VALID,154,VALID,0.934622,
2002-02-19, 01:28:00,VALID,920.592,VALID,0,VALID,86.9625,VALID,0.0679233,VALID,20.7935,VALID,149,VALID,1.13496,
2002-02-19, 01:29:00,VALID,920.582,VALID,0,VALID,87.049,VALID,0.0509425,VALID,20.8064,VALID,152,VALID,1.28652,
2002-02-19, 01:30:00,VALID,920.582,VALID,0,VALID,86.8112,VALID,0.0509425,VALID,20.8161,VALID,146,VALID,1.05549,
2002-02-19, 01:31:00,VALID,920.562,VALID,0,VALID,86.4869,VALID,0.0339617,VALID,20.8325,VALID,149,VALID,1.20683,
2002-02-19, 01:32:00,VALID,920.553,VALID,0,VALID,86.3076,VALID,0.0509425,VALID,20.8417,VALID,145,VALID,1.74805,
2002-02-19, 01:33:00,VALID,920.559,VALID,0,VALID,86.0965,VALID,0.0849042,VALID,20.8775,VALID,146,VALID,1.53398,
2002-02-19, 01:34:00,VALID,920.551,VALID,0,VALID,86.005,VALID,0.0339617,VALID,20.877,VALID,157,VALID,1.42388,
2002-02-19, 01:35:00,VALID,920.536,VALID,0,VALID,85.8473,VALID,0.0849042,VALID,20.8896,VALID,149,VALID,1.33244,
2002-02-19, 01:36:00,VALID,920.533,VALID,0,VALID,85.9185,VALID,0.0679233,VALID,20.913,VALID,161,VALID,0.838477,
2002-02-19, 01:37:00,VALID,920.524,VALID,0,VALID,85.1975,VALID,0.0509425,VALID,20.9192,VALID,151,VALID,1.03594,
2002-02-19, 01:38:00,VALID,920.512,VALID,0,VALID,84.0289,VALID,0.0849042,VALID,20.9515,VALID,113,VALID,0.9375,
2002-02-19, 01:39:00,VALID,920.52,VALID,0,VALID,83.5851,VALID,-0.0339617,VALID,21.0172,VALID,102,VALID,0.798725,
2002-02-19, 01:40:00,VALID,920.505,VALID,0,VALID,84.0098,VALID,-0.0339617,VALID,21.0859,VALID,142,VALID,0.495703,
2002-02-19, 01:41:00,VALID,920.514,VALID,0,VALID,83.9132,VALID,-0.0169808,VALID,21.1217,VALID,88,VALID,0.468945,
2002-02-19, 01:42:00,VALID,920.504,VALID,0,VALID,83.9081,VALID,-0.0509425,VALID,21.1147,VALID,99,VALID,0.222957,
2002-02-19, 01:43:00,VALID,920.498,VALID,0,VALID,84.0696,VALID,-0.0339617,VALID,21.1182,VALID,120,VALID,0.41838,
2002-02-19, 01:44:00,VALID,920.484,VALID,0,VALID,84.2654,VALID,-0.0339617,VALID,21.1209,VALID,158,VALID,1.25645,
2002-02-19, 01:45:00,VALID,920.484,VALID,0,VALID,84.6901,VALID,-0.0509425,VALID,21.1085,VALID,128,VALID,0.694727,
2002-02-19, 01:46:00,VALID,920.466,VALID,0,VALID,84.9635,VALID,-0.0509425,VALID,21.0961,VALID,100,VALID,0.578926,
2002-02-19, 01:47:00,VALID,920.466,VALID,0,VALID,85.3094,VALID,-0.0509425,VALID,21.057,VALID,98,VALID,0.427015,
2002-02-19, 01:48:00,VALID,920.427,VALID,0,VALID,85.4582,VALID,-0.0169808,VALID,21.0307,VALID,157,VALID,0.481641,
2002-02-19, 01:49:00,VALID,920.416,VALID,0,VALID,85.5803,VALID,-0.0339617,VALID,21.0016,VALID,155,VALID,0.85918,
2002-02-19, 01:50:00,VALID,920.39,VALID,0,VALID,85.6095,VALID,-0.0679233,VALID,20.9895,VALID,158,VALID,0.903446,
2002-02-19, 01:51:00,VALID,920.386,VALID,0,VALID,85.8791,VALID,-0.0849042,VALID,20.9564,VALID,162,VALID,0.339433,
2002-02-19, 01:52:00,VALID,920.37,VALID,0,VALID,85.9338,VALID,-0.0339617,VALID,20.937,VALID,148,VALID,0.566211,
2002-02-19, 01:53:00,VALID,920.358,VALID,0,VALID,86.0584,VALID,-0.0509425,VALID,20.9109,VALID,146,VALID,0.929102,
2002-02-19, 01:54:00,VALID,920.339,VALID,0,VALID,86.1461,VALID,-0.0849042,VALID,20.9082,VALID,150,VALID,0.76262,
2002-02-19, 01:55:00,VALID,920.313,VALID,0,VALID,86.2885,VALID,-0.0339617,VALID,20.8944,VALID,146,VALID,0.874178,
2002-02-19, 01:56:00,VALID,920.299,VALID,0,VALID,86.4348,VALID,-0.0509425,VALID,20.8791,VALID,140,VALID,0.614844,
2002-02-19, 01:57:00,VALID,920.257,VALID,0,VALID,86.553,VALID,-0.0679233,VALID,20.8425,VALID,149,VALID,0.953906,
2002-02-19, 01:58:00,VALID,920.238,VALID,0,VALID,86.7603,VALID,-0.0849042,VALID,20.8403,VALID,128,VALID,1.02484,
2002-02-19, 01:59:00,VALID,920.204,VALID,0,VALID,86.9371,VALID,-0.0509425,VALID,20.8177,VALID,135,VALID,1.06743,
2002-02-19, 02:00:00,VALID,920.166,VALID,0,VALID,87.2079,VALID,-0.0679233,VALID,20.7983,VALID,120,VALID,0.943164,
2002-02-19, 02:01:00,VALID,920.126,VALID,0,VALID,87.5907,VALID,-0.101885,VALID,20.7595,VALID,108,VALID,1.17598,
2002-02-19, 02:02:00,VALID,920.095,VALID,0,VALID,87.9035,VALID,-0.0849042,VALID,20.7173,VALID,114,VALID,1.14583,
2002-02-19, 02:03:00,VALID,920.063,VALID,0,VALID,88.2583,VALID,-0.101885,VALID,20.6892,VALID,114,VALID,0.909745,
2002-02-19, 02:04:00,VALID,920.044,VALID,0,VALID,88.4337,VALID,-0.0849042,VALID,20.6599,VALID,126,VALID,1.14004,
2002-02-19, 02:05:00,VALID,920.023,VALID,0,VALID,88.4554,VALID,-0.101885,VALID,20.6276,VALID,112,VALID,1.48887,
2002-02-19, 02:06:00,VALID,920.005,VALID,0,VALID,88.6092,VALID,-0.101885,VALID,20.601,VALID,110,VALID,1.39483,
2002-02-19, 02:07:00,VALID,919.984,VALID,0,VALID,88.5228,VALID,-0.0339617,VALID,20.6015,VALID,96,VALID,1.62911,
2002-02-19, 02:08:00,VALID,919.968,VALID,0,VALID,88.6715,VALID,-0.0509425,VALID,20.6015,VALID,126,VALID,1.60645,
2002-02-19, 02:09:00,VALID,919.955,VALID,0,VALID,88.5151,VALID,-0.0509425,VALID,20.598,VALID,111,VALID,1.71758,
2002-02-19, 02:10:00,VALID,919.928,VALID,0,VALID,88.8089,VALID,-0.0679233,VALID,20.6012,VALID,114,VALID,0.653446,
2002-02-19, 02:11:00,VALID,919.922,VALID,0,VALID,88.9602,VALID,-0.0849042,VALID,20.5918,VALID,115,VALID,1.70066,
2002-02-19, 02:12:00,VALID,919.906,VALID,0,VALID,89.0695,VALID,-0.0509425,VALID,20.5587,VALID,116,VALID,1.32832,
2002-02-19, 02:13:00,VALID,919.898,VALID,0,VALID,89.1242,VALID,-0.0339617,VALID,20.5426,VALID,115,VALID,1.54805,
2002-02-19, 02:14:00,VALID,919.873,VALID,0,VALID,89.1891,VALID,-0.101885,VALID,20.5406,VALID,115,VALID,1.51222,
2002-02-19, 02:15:00,VALID,919.874,VALID,0,VALID,89.2361,VALID,-0.0849042,VALID,20.517,VALID,111,VALID,1.65152,
2002-02-19, 02:16:00,VALID,919.864,VALID,0,VALID,89.3569,VALID,-0.101885,VALID,20.5145,VALID,106,VALID,1.44648,
2002-02-19, 02:17:00,VALID,919.884,VALID,0,VALID,89.4561,VALID,-0.0849042,VALID,20.4879,VALID,134,VALID,1.30195,
2002-02-19, 02:18:00,VALID,919.901,VALID,0,VALID,89.2832,VALID,-0.0509425,VALID,20.4852,VALID,131,VALID,1.69351,
2002-02-19, 02:19:00,VALID,919.919,VALID,0,VALID,89.1827,VALID,-0.0509425,VALID,20.4884,VALID,123,VALID,0.810855,
2002-02-19, 02:20:00,VALID,919.922,VALID,0,VALID,89.0721,VALID,-0.0509425,VALID,20.5013,VALID,118,VALID,1.34238,
2002-02-19, 02:21:00,VALID,919.928,VALID,0,VALID,88.9309,VALID,-0.0679233,VALID,20.5078,VALID,132,VALID,1.26758,
2002-02-19, 02:22:00,VALID,919.926,VALID,0,VALID,88.7135,VALID,-0.0679233,VALID,20.514,VALID,143,VALID,1.43389,
2002-02-19, 02:23:00,VALID,919.916,VALID,0,VALID,88.449,VALID,-0.0849042,VALID,20.514,VALID,144,VALID,2.15769,
2002-02-19, 02:24:00,VALID,919.897,VALID,0,VALID,88.3053,VALID,-0.0339617,VALID,20.5433,VALID,149,VALID,1.61855,
2002-02-19, 02:25:00,VALID,919.883,VALID,0,VALID,87.9836,VALID,-0.0679233,VALID,20.5687,VALID,149,VALID,1.69492,
2002-02-19, 02:26:00,VALID,919.854,VALID,0,VALID,87.9683,VALID,-0.0169808,VALID,20.5915,VALID,145,VALID,1.59716,
2002-02-19, 02:27:00,VALID,919.836,VALID,0,VALID,87.9098,VALID,-0.0509425,VALID,20.6109,VALID,150,VALID,1.87521,
2002-02-19, 02:28:00,VALID,919.82,VALID,0,VALID,87.9607,VALID,-0.0509425,VALID,20.6109,VALID,144,VALID,1.51484,
2002-02-19, 02:29:00,VALID,919.798,VALID,0,VALID,88.182,VALID,-0.0169808,VALID,20.6072,VALID,148,VALID,1.83672,
2002-02-19, 02:30:00,VALID,919.793,VALID,0,VALID,88.3206,VALID,-0.0169808,VALID,20.6012,VALID,153,VALID,1.58233,
2002-02-19, 02:31:00,VALID,919.773,VALID,0,VALID,88.2837,VALID,-0.0339617,VALID,20.5983,VALID,148,VALID,1.52796,
2002-02-19, 02:32:00,VALID,919.764,VALID,0,VALID,88.1972,VALID,-0.0169808,VALID,20.5848,VALID,147,VALID,1.63516,
2002-02-19, 02:33:00,VALID,919.752,VALID,0,VALID,88.0523,VALID,-0.0169808,VALID,20.5851,VALID,147,VALID,1.77754,
2002-02-19, 02:34:00,VALID,919.752,VALID,0,VALID,87.8081,VALID,-0.0169808,VALID,20.5781,VALID,144,VALID,1.48978,
2002-02-19, 02:35:00,VALID,919.752,VALID,0,VALID,87.77,VALID,-0.0169808,VALID,20.6012,VALID,150,VALID,1.20703,
2002-02-19, 02:36:00,VALID,919.758,VALID,0,VALID,87.6886,VALID,-0.0339617,VALID,20.6109,VALID,137,VALID,1.04551,
2002-02-19, 02:37:00,VALID,919.74,VALID,0,VALID,87.3058,VALID,-0.0679233,VALID,20.6211,VALID,129,VALID,1.32949,
2002-02-19, 02:38:00,VALID,919.746,VALID,0,VALID,87.068,VALID,-0.0169808,VALID,20.6206,VALID,151,VALID,1.09776,
2002-02-19, 02:39:00,VALID,919.733,VALID,0,VALID,86.9294,VALID,0,VALID,20.6395,VALID,134,VALID,0.527344,
2002-02-19, 02:40:00,VALID,919.729,VALID,0,VALID,86.7069,VALID,0,VALID,20.6494,VALID,146,VALID,1.08398,
2002-02-19, 02:41:00,VALID,919.729,VALID,0,VALID,86.815,VALID,-0.0339617,VALID,20.6723,VALID,132,VALID,0.632227,
2002-02-19, 02:42:00,VALID,919.702,VALID,0,VALID,86.6115,VALID,0,VALID,20.6954,VALID,113,VALID,0.811098,
2002-02-19, 02:43:00,VALID,919.692,VALID,0,VALID,86.3941,VALID,-0.0339617,VALID,20.6823,VALID,135,VALID,1.09868,
2002-02-19, 02:44:00,VALID,919.67,VALID,0,VALID,86.3954,VALID,-0.0169808,VALID,20.6885,VALID,137,VALID,1.04746,
2002-02-19, 02:45:00,VALID,919.659,VALID,0,VALID,86.1181,VALID,-0.0339617,VALID,20.685,VALID,139,VALID,0.963672,
2002-02-19, 02:46:00,VALID,919.641,VALID,0,VALID,86.0686,VALID,-0.0169808,VALID,20.7046,VALID,135,VALID,0.722957,
2002-02-19, 02:47:00,VALID,919.624,VALID,0,VALID,86.3178,VALID,-0.0169808,VALID,20.7272,VALID,90,VALID,0.820107,
2002-02-19, 02:48:00,VALID,919.614,VALID,0,VALID,86.5708,VALID,0,VALID,20.7275,VALID,79,VALID,1.1625,
2002-02-19, 02:49:00,VALID,919.604,VALID,0,VALID,86.6471,VALID,-0.0509425,VALID,20.675,VALID,99,VALID,0.729688,
2002-02-19, 02:50:00,VALID,919.594,VALID,0,VALID,86.8964,VALID,-0.0169808,VALID,20.6564,VALID,94,VALID,0.445513,
2002-02-19, 02:51:00,VALID,919.591,VALID,0,VALID,86.9752,VALID,-0.0509425,VALID,20.64,VALID,90,VALID,0.264391,
2002-02-19, 02:52:00,VALID,919.571,VALID,0,VALID,87.1876,VALID,-0.0339617,VALID,20.6273,VALID,98,VALID,0.159766,
2002-02-19, 02:53:00,VALID,919.57,VALID,0,VALID,87.1609,VALID,-0.0339617,VALID,20.6012,VALID,149,VALID,0.357227,
2002-02-19, 02:54:00,VALID,919.558,VALID,0,VALID,87.2422,VALID,0.0339617,VALID,20.6101,VALID,134,VALID,0.602965,
2002-02-19, 02:55:00,VALID,919.541,VALID,0,VALID,87.0757,VALID,0.0679233,VALID,20.6061,VALID,122,VALID,0.92537,
2002-02-19, 02:56:00,VALID,919.511,VALID,0,VALID,87.035,VALID,0.0679233,VALID,20.6223,VALID,126,VALID,0.631836,
2002-02-19, 02:57:00,VALID,919.489,VALID,0,VALID,87.2321,VALID,0.0679233,VALID,20.6484,VALID,124,VALID,0.549609,
2002-02-19, 02:58:00,VALID,919.462,VALID,0,VALID,87.0134,VALID,0.101885,VALID,20.6282,VALID,131,VALID,0.999399,
2002-02-19, 02:59:00,VALID,919.426,VALID,0,VALID,86.9956,VALID,0.0509425,VALID,20.6452,VALID,137,VALID,1.09519,
2002-02-19, 03:00:00,VALID,919.396,VALID,0,VALID,86.9663,VALID,0.0679233,VALID,20.6452,VALID,130,VALID,0.808008,
2002-02-19, 03:01:00,VALID,919.392,VALID,0,VALID,87.1418,VALID,0.0679233,VALID,20.6551,VALID,113,VALID,0.496484,
2002-02-19, 03:02:00,VALID,919.374,VALID,0,VALID,86.8786,VALID,0.0849042,VALID,20.6349,VALID,138,VALID,0.78145,
2002-02-19, 03:03:00,VALID,919.366,VALID,0,VALID,86.9536,VALID,0.0509425,VALID,20.6446,VALID,87,VALID,0.680304,
2002-02-19, 03:04:00,VALID,919.355,VALID,0,VALID,87.1698,VALID,0.0849042,VALID,20.6546,VALID,66,VALID,0.908008,
2002-02-19, 03:05:00,VALID,919.334,VALID,0,VALID,87.0401,VALID,0.0509425,VALID,20.6419,VALID,90,VALID,0.775781,
2002-02-19, 03:06:00,VALID,919.322,VALID,0,VALID,87.405,VALID,0.101885,VALID,20.6282,VALID,91,VALID,0.679888,
2002-02-19, 03:07:00,VALID,919.3,VALID,0,VALID,87.714,VALID,0.101885,VALID,20.6156,VALID,79,VALID,0.950247,
2002-02-19, 03:08:00,VALID,919.281,VALID,0,VALID,87.789,VALID,0.101885,VALID,20.5706,VALID,79,VALID,1.27832,
2002-02-19, 03:09:00,VALID,919.274,VALID,0,VALID,87.9823,VALID,0.0339617,VALID,20.5431,VALID,92,VALID,1.00117,
2002-02-19, 03:10:00,VALID,919.244,VALID,0,VALID,88.3244,VALID,-0.0169808,VALID,20.5108,VALID,88,VALID,1.14123,
2002-02-19, 03:11:00,VALID,919.229,VALID,0,VALID,88.4096,VALID,-0.0339617,VALID,20.475,VALID,123,VALID,1.06538,
2002-02-19, 03:12:00,VALID,919.206,VALID,0,VALID,88.5304,VALID,-0.0169808,VALID,20.4593,VALID,134,VALID,0.89375,
2002-02-19, 03:13:00,VALID,919.2,VALID,0,VALID,88.3969,VALID,0,VALID,20.4462,VALID,122,VALID,1.46738,
2002-02-19, 03:14:00,VALID,919.184,VALID,0,VALID,88.3524,VALID,-0.0339617,VALID,20.4429,VALID,135,VALID,0.838542,
2002-02-19, 03:15:00,VALID,919.183,VALID,0,VALID,88.4452,VALID,0.0169808,VALID,20.4432,VALID,116,VALID,1.30489,
2002-02-19, 03:16:00,VALID,919.166,VALID,0,VALID,88.6156,VALID,-0.0509425,VALID,20.427,VALID,115,VALID,1.15527,
2002-02-19, 03:17:00,VALID,919.159,VALID,0,VALID,88.7542,VALID,-0.0169808,VALID,20.4079,VALID,122,VALID,1.03516,
2002-02-19, 03:18:00,VALID,919.146,VALID,0,VALID,88.7389,VALID,-0.0509425,VALID,20.3815,VALID,124,VALID,1.13462,
2002-02-19, 03:19:00,VALID,919.143,VALID,0,VALID,88.6664,VALID,-0.0339617,VALID,20.3821,VALID,136,VALID,1.25247,
2002-02-19, 03:20:00,VALID,919.132,VALID,0,VALID,88.5456,VALID,0,VALID,20.3753,VALID,140,VALID,1.04375,
2002-02-19, 03:21:00,VALID,919.131,VALID,0,VALID,88.4439,VALID,-0.0169808,VALID,20.395,VALID,127,VALID,0.772852,
2002-02-19, 03:22:00,VALID,919.119,VALID,0,VALID,88.4121,VALID,-0.0339617,VALID,20.3746,VALID,126,VALID,0.817508,
2002-02-19, 03:23:00,VALID,919.125,VALID,0,VALID,88.3752,VALID,0,VALID,20.3912,VALID,136,VALID,0.994243,
2002-02-19, 03:24:00,VALID,919.106,VALID,0,VALID,88.1909,VALID,0.0169808,VALID,20.4042,VALID,136,VALID,1.5502,
2002-02-19, 03:25:00,VALID,919.098,VALID,0,VALID,88.0484,VALID,0.0169808,VALID,20.4399,VALID,132,VALID,1.24238,
2002-02-19, 03:26:00,VALID,919.078,VALID,0,VALID,87.7878,VALID,0,VALID,20.4825,VALID,145,VALID,1.73931,
2002-02-19, 03:27:00,VALID,919.056,VALID,0,VALID,87.6479,VALID,0.0169808,VALID,20.4954,VALID,144,VALID,1.53454,
2002-02-19, 03:28:00,VALID,919.024,VALID,0,VALID,87.6988,VALID,0.0339617,VALID,20.4949,VALID,133,VALID,1.31055,
2002-02-19, 03:29:00,VALID,919.009,VALID,0,VALID,87.7636,VALID,0,VALID,20.4981,VALID,134,VALID,1.1127,
2002-02-19, 03:30:00,VALID,918.974,VALID,0,VALID,87.6199,VALID,0.0339617,VALID,20.4976,VALID,140,VALID,1.44211,
2002-02-19, 03:31:00,VALID,918.95,VALID,0,VALID,87.4966,VALID,0.0339617,VALID,20.5177,VALID,137,VALID,1.47615,